User: anonymous
Location: Montr�al
(45.5000°N, 73.5830°W)
Time: 16:17:58
(UTC-04:00)
Language:

Cosmos 2369 - Orbit

View from above orbital plane
View from above orbital plane
View from above satellite
View from above satellite

Ground track
Ground track

The orbit data is extracted from the following two-line orbital elements,

1 26069U 00006A   14273.44960163  .00000135  00000-0  97390-4 0  3646
2 26069 070.9921 274.3968 0013170 287.0518 225.2755 14.13233960756148
Epoch (UTC): 30 September 2014 10:47:25
Eccentricity: 0.0013170
inclination: 70.9921°
perigee height: 839 km
apogee height: 858 km
right ascension of ascending node: 274.3968°
argument of perigee: 287.0518°
revolutions per day: 14.13233960
mean anomaly at epoch: 225.2755°
orbit number at epoch: 75614

The dashed part of the orbit path shows where the satellite is in the earth's shadow,  

DLR